780  
ASUS43 KFGF 290010  
RWRFGF  
PRAIRIE TO PINES WEATHER ROUNDUP  
NATIONAL WEATHER SERVICE EASTERN NORTH DAKOTA/GRAND FORKS ND  
600 PM CST MON NOV 28 2022  
 
**SATELLITE DATA USED TO AUGMENT SKY COVER AT AUTOMATED STATIONS**  
***** WEATHER ACROSS EASTERN NORTH DAKOTA *****  
 
CITY SKY/WX TMP DP RH WIND PRES REMARKS
 
GRAND FORKS MOCLDY 26 16 65 W16 29.59R WCI 14  
6HR MIN TEMP: 26; 6HR MAX TEMP: 34;  
 
GRAND FRKS AFB CLEAR 24 15 66 SW12 29.57R WCI 13  
GRAND FRKS NWS N/A 25 19 78 W12 29.54R WCI 14  
DEVILS LAKE FAIR 21 14 74 W22 29.53R WCI 5  
6HR MIN TEMP: 21; 6HR MAX TEMP: 27;  
 
FARGO FAIR 28 20 71 W15 29.65R WCI 16  
WAHPETON ARPT FAIR 30 25 80 W7 29.66R WCI 23  

 
 
***** WEATHER ACROSS CENTRAL AND WESTERN NORTH DAKOTA *****  
 
CITY SKY/WX TMP DP RH WIND PRES REMARKS
 
BISMARCK CLOUDY 24 12 60 W18G25 29.67R WCI 10  
6HR MIN TEMP: 24; 6HR MAX TEMP: 29;  
 
MINOT CLOUDY 21 10 62 SW23G37 29.53R WCI 5  
6HR MIN TEMP: 21; 6HR MAX TEMP: 27; 6HR PCP: TRACE;  
 
JAMESTOWN FAIR 24 14 65 W17G24 29.62R WCI 11  
6HR MIN TEMP: 24; 6HR MAX TEMP: 32;  
 
MINOT AFB MOCLDY 19 11 69 W23G31 29.50R WCI 2  
GARRISON N/A 20 12 71 W26G41 29.59R WCI 2  
WILLISTON NOT AVBL  
DICKINSON MOCLDY 18 9 68 W16 29.62R WCI 3  
6HR MIN TEMP: 18; 6HR MAX TEMP: 26; 6HR PCP: TRACE;  
 
HETTINGER FAIR 20 11 68 W15 29.68R WCI 6  
6HR MIN TEMP: 20; 6HR MAX TEMP: 32;  
 

 
 
***** OTHER AIRPORT OBSERVATIONS IN OUR AREA *****  
 
CITY SKY/WX TMP DP RH WIND PRES REMARKS
 
WALHALLA MOCLDY 25 16 68 SW12G24 29.48F WCI 14  
GRAFTON AIRPOR FAIR 25 16 68 SW14 29.57R WCI 13  
VALLEY CITY AR FAIR 23 14 68 W18 29.63R WCI 9  
CANDO FAIR 19 18 93 W20 29.51R WCI 4  
CAVALIER APRT CLOUDY 27 16 63 SW15G26 29.51R WCI 15  
GWINNER CLEAR 28 25 86 W12 29.66R WCI 18  
ROLLA CLOUDY 19 16 86 W23G35 29.42R WCI 2  
***** THE ABOVE OBSERVATIONS ARE NON NWS ARE NOT QUALITY  
CONTROLLED AND MAY MIS-REPORT RAIN FOR SNOW...  

 
 
***** WEATHER ACROSS NORTHERN MINNESOTA *****  
 
CITY SKY/WX TMP DP RH WIND PRES REMARKS
 
FLAG ISLAND N/A 30 28 93 S18 29.49F VSB 1 WCI 18  
WARROAD LGT SNOW 30 27 86 S7 29.52R WCI 23  
ROSEAU CLOUDY 30 27 86 SW13 29.52R WCI 20  
HALLOCK MOCLDY 27 19 74 SW16G23 29.53S WCI 14  
THF RVR FALLS MOCLDY 26 23 88 SW14 29.58R WCI 14  
6HR MIN TEMP: 26; 6HR MAX TEMP: 33; 6HR PCP: TRACE;  
 
BAUDETTE LGT SNOW 32 28 85 S9 29.52F FOG WCI 24  
6HR MIN TEMP: 32; 6HR MAX TEMP: 34; 6HR PCP: TRACE;  
 
WASKISH LGT SNOW 34 30 86 S6 29.56R  
CROOKSTON N/A 27 18 69 SW12 29.61R WCI 16  
STEPHEN NDAWN N/A 25 18 74 W13 N/A WCI 13  
GREENBUSH NDAW N/A 25 18 74 MISG N/A  

 
***** WEATHER ACROSS CENTRAL AND WEST MINNESOTA *****  
 
CITY SKY/WX TMP DP RH WIND PRES REMARKS
 
FOSSTON CLOUDY 27 23 86 W12 29.59R WCI 16  
BEMIDJI FAIR 31 26 84 CALM 29.56S  
6HR MIN TEMP: 31; 6HR MAX TEMP: 33;  
 
PARK RAPIDS CLOUDY 31 25 78 SW6 29.57R  
6HR MIN TEMP: 31; 6HR MAX TEMP: 34;  
 
ELBOW LAKE MOCLDY 31 26 81 NW14 29.65R WCI 21  
6HR MIN TEMP: 31; 6HR MAX TEMP: 35;  
 
WADENA MOCLDY 32 27 80 SW3 29.60S  
DETROIT LAKES CLOUDY 30 28 93 NW9 29.61R WCI 22  
MOORHEAD FAIR 30 21 69 W15 29.65R WCI 19  
FERGUS FALLS FAIR 30 27 86 W12 29.64R WCI 21  
MORRIS MN N/A 32 25 74 NW9 29.66R WCI 24  
STAPLES N/A 34 27 75 CALM 29.61R  

 
***** WEATHER ELSEWHERE ACROSS MINNESOTA *****  
 
CITY SKY/WX TMP DP RH WIND PRES REMARKS
 
DULUTH CLOUDY 32 26 78 SE5 29.62R  
6HR MIN TEMP: 29; 6HR MAX TEMP: 32; 6HR PCP: 0.03;  
 
INTRNTL FALLS CLOUDY 31 27 85 VRB7 29.57S WCI 24  
6HR MIN TEMP: 30; 6HR MAX TEMP: 32; 6HR PCP: 0.04;  
 
ELY CLOUDY 28 25 86 SE7 29.63S WCI 21  
CLOQUET CLOUDY 30 27 86 CALM 29.61S  
WHEATON N/A 30 25 80 W7 29.68R WCI 23  
BRAINERD MOCLDY 32 25 75 CALM 29.62R  
6HR MIN TEMP: 31; 6HR MAX TEMP: 36;  
 
HIBBING CLOUDY 29 26 89 SE5 29.61R WCI 24  
6HR MIN TEMP: 28; 6HR MAX TEMP: 30; 6HR PCP: TRACE;  
 
ALEXANDRIA FAIR 30 26 85 W3 29.62S  
6HR MIN TEMP: 30; 6HR MAX TEMP: 36;  
 
SAINT CLOUD FAIR 30 26 85 CALM 29.63R  
6HR MIN TEMP: 30; 6HR MAX TEMP: 38;  
 
MINNEAPOLIS MOCLDY 37 27 67 SE6 29.65R  
6HR MIN TEMP: 36; 6HR MAX TEMP: 43;  
 

 
 
***** WEATHER ACROSS SOUTH DAKOTA *****  
 
CITY SKY/WX TMP DP RH WIND PRES REMARKS
 
SIOUX FALLS MOCLDY 38 24 57 NW7 29.69R  
6HR MIN TEMP: 37; 6HR MAX TEMP: 47;  
 
BROOKINGS FAIR 32 25 75 NW7 29.67R  
WATERTOWN FAIR 30 24 78 NW5 29.66R  
6HR MIN TEMP: 30; 6HR MAX TEMP: 40;  
 
HURON FAIR 33 21 61 NW5 29.70R  
6HR MIN TEMP: 31; 6HR MAX TEMP: 45;  
 
SISSETON N/A 32 24 72 W7 29.67R  
ABERDEEN FAIR 29 19 66 NW6 29.68S WCI 23  
6HR MIN TEMP: 29; 6HR MAX TEMP: 41;  
 
MITCHELL FAIR 36 20 52 NW12 29.71R  
PIERRE CLOUDY 34 18 52 N8 29.68R  
6HR MIN TEMP: 33; 6HR MAX TEMP: 40;  
 
MOBRIDGE FAIR 27 17 66 NW7 29.67R WCI 19  
RAPID CITY CLOUDY 29 7 39 N18G26 29.68R WCI 16  
6HR MIN TEMP: 29; 6HR MAX TEMP: 35;  
 

 
 
***** SOME WEATHER IN NEARBY STATES *****  
 
CITY SKY/WX TMP DP RH WIND PRES REMARKS
 
GLASGOW MT LGT SNOW 16 9 74 NW25G41 29.75R WCI -3  
6HR MIN TEMP: 16; 6HR MAX TEMP: 20; 6HR PCP: TRACE;  
 
GREAT FALLS MT CLOUDY 10 3 73 NW9 29.87R WCI -3  
6HR MIN TEMP: 10; 6HR MAX TEMP: 12; 6HR PCP: TRACE;  
 
CHEYENNE WY FAIR 25 17 72 N13 29.51R WCI 14  
6HR MIN TEMP: 25; 6HR MAX TEMP: 46;  
 
SCOTTSBLUFF NE MOCLDY 33 23 66 NE13 29.60R WCI 24  
6HR MIN TEMP: 33; 6HR MAX TEMP: 47;  
 
OMAHA NE MOCLDY 45 30 55 S9 29.66R  
6HR MIN TEMP: 44; 6HR MAX TEMP: 54;  
 
DES MOINES IA MOCLDY 45 27 49 S10 29.71S  
6HR MIN TEMP: 45; 6HR MAX TEMP: 52;  
 
DAVENPORT IA FAIR 41 33 73 S8 29.83S  
6HR MIN TEMP: 41; 6HR MAX TEMP: 49;  
 
CHICAGO IL CLOUDY 43 34 70 S10 29.90S  
6HR MIN TEMP: 42; 6HR MAX TEMP: 46;  
 
EAU CLAIRE WI FAIR 38 24 57 S9 29.68S  
6HR MIN TEMP: 38; 6HR MAX TEMP: 41;  
 
LA CROSSE WI FAIR 42 27 55 S10 29.71S  
6HR MIN TEMP: 39; 6HR MAX TEMP: 44;  
 

 
 
***** SOME NATIONAL WEATHER *****  
 
CITY SKY/WX TMP DP RH WIND PRES REMARKS
 
LA GUARDIA NY FAIR 47 33 58 NW16 29.95R  
6HR MIN TEMP: 47; 6HR MAX TEMP: 52;  
 
RALEIGH NC FAIR 55 41 59 NE5 30.02R  
6HR MIN TEMP: 54; 6HR MAX TEMP: 67;  
 
ATLANTA GA FAIR 56 43 61 CALM 30.03R  
6HR MIN TEMP: 56; 6HR MAX TEMP: 65;  
 
NEW ORLEANS LA FAIR 66 56 70 NE3 29.98F  
6HR MIN TEMP: 66; 6HR MAX TEMP: 75;  
 
OKLAHOMA CITY MOCLDY 56 43 61 S17 29.67S  
6HR MIN TEMP: 56; 6HR MAX TEMP: 64;  
 
ALBUQUERQUE NM MOCLDY 48 11 22 SW6 29.75F  
6HR MIN TEMP: 39; 6HR MAX TEMP: 51;  
 
SALT LAKE CITY SNOW 29 28 96 NW16 29.66R VSB 1/2 WCI 17  
6HR MIN TEMP: 29; 6HR MAX TEMP: 45; 6HR PCP: 0.02;  
 
LOS ANGELES CA FAIR 60 51 72 SW9 29.88F  
6HR MIN TEMP: 60; 6HR M  
 
CLICK HERE TO GO TO PREVIOUS BULLETINS.

The Nexlab ND Page
The Nexlab MN Page Main Text Page